Weather in Krasnokamenka

Russia / Republic of Crimea     44°33′46″N   34°17′22″E
temp.,
°C
wind,
m/s
gust,
m/s
humid.,
%
clouds,
%
prec.,
mm/h
press.,
hPa
HPBL,
m
27 february, sat
sat2700:00+8w67750 0.0 1024105
03:00+8w68760 0.0 1022137
06:00+8w67730 0.0 1021108
09:00+9w68720 0.0 1020130
12:00+11w68680 0.0 1019278
15:00+11w68710 0.0 1018294
18:00+10wnw45770 0.0 101781
21:00+9nnw457916 0.0 101854
28 february, sun
sun2800:00+8nne459099 0.1 1018171
03:00+7nw2386100 0.5 1019287
06:00+5nnw6776100 0.1 1019431
09:00+4nnw566774 0.1 1020430
12:00+5wnw336417 0.1 1021898
15:00+5s227733 0.4 1022579
18:00+4nw127772 0.6 1023466
21:00+4nnw447553 0.8 1024418
1 march, mon
mon100:00+3nw447421 0.0 1025237
03:00+2nw447437 0.0 1025200
06:00+3nnw2268100 0.0 1025259
09:00+3ese2287100 0.3 1026359
12:00+3e3389100 0.8 1027369
15:00+3ese328699 1.1 1027372
18:00+3e128486 0.3 1027417
21:00+2ne238770 0.6 1029339
2 march, tue
tue200:00+2nne228075 0.3 1030330
03:00+2nnw227159 0.3 1030259
06:00+2nw32696 0.0 1030251
09:00+2wnw226435 0.0 1031329
12:00+4ssw336885 0.0 1031715
15:00+5sw236275 0.0 1030498
18:00+4nw557182 0.0 1028367
21:00+4nw567591 0.0 1028251
3 march, wed
wed300:00+5wnw467889 0.0 1026468
03:00+6wnw347995 0.0 1025325
06:00+6nw348167 0.0 1024236
09:00+6nw557647 0.0 1025228
12:00+8nw23726 0.0 1026219
15:00+8se137144 0.0 1026444
18:00+7sw237678 0.0 1027174
21:00+5wnw237956 0.0 1028127